Weather reports worldwide

Advertisment
Ronchi Dei Legionari, Italy (16108): temperature & dewpoint: 19.03.2019 07:00:00 - 25.03.2019 07:00:00 (CET)Ronchi Dei Legionari, Italy (16108): wind speed: 19.03.2019 07:00:00 - 25.03.2019 07:00:00 (CET)Ronchi Dei Legionari, Italy (16108): wind direction: 19.03.2019 07:00:00 - 25.03.2019 07:00:00 (CET)Ronchi Dei Legionari, Italy (16108): reduced air pressure: 19.03.2019 07:00:00 - 25.03.2019 07:00:00 (CET)Ronchi Dei Legionari, Italy (16108): visibility: 19.03.2019 07:00:00 - 25.03.2019 07:00:00 (CET)Ronchi Dei Legionari, Italy (16108): precipitation: 19.03.2019 07:00:00 - 25.03.2019 07:00:00 (CET)
Date & Time tt [°C] td [°C] ff [km/h] ff [kn] dd ppp [hPa] vv [km] rr [mm]
25.03.2019 07:00:00 5,3 2,1 5 3 NNE 1014,0 10 -
25.03.2019 06:00:00 4,0 2,0 2 1 - - 10 -
25.03.2019 05:00:00 5,0 2,0 4 2 NNE - 10 -
25.03.2019 04:00:00 6,1 1,2 11 6 ESE 1014,8 10 0,0
25.03.2019 03:00:00 6,0 1,0 8 4 E - 10 -
25.03.2019 02:00:00 7,0 2,0 8 4 ENE - 10 -
25.03.2019 01:00:00 6,3 2,9 5 3 NNE 1016,6 10 -
25.03.2019 00:00:00 6,0 3,0 2 1 NW - 10 -
24.03.2019 23:00:00 7,0 3,0 4 2 - - 10 -
24.03.2019 22:00:00 7,5 2,7 5 3 NNE 1017,6 10 0,0
24.03.2019 21:00:00 12,0 2,0 5 3 ESE - 10 -
24.03.2019 20:00:00 13,0 3,0 11 6 SE - 10 -
24.03.2019 19:00:00 14,1 4,3 9 5 ESE 1017,7 10 -
24.03.2019 18:00:00 17,0 6,0 9 5 SSE - 10 -
24.03.2019 17:00:00 19,0 5,0 9 5 SSE - 10 -
24.03.2019 16:00:00 20,3 4,8 13 7 S 1018,1 10 0,0
24.03.2019 15:00:00 22,0 2,0 13 7 SSW - 10 -
24.03.2019 14:00:00 22,0 2,0 16 9 SW - 10 -
24.03.2019 13:00:00 21,5 2,5 15 8 SW 1020,4 10 -
24.03.2019 12:00:00 21,0 3,0 15 8 SSW - 10 -
24.03.2019 11:00:00 21,0 2,0 8 4 S - 10 -
24.03.2019 10:00:00 19,4 4,7 4 2 - 1022,0 10 0,0
24.03.2019 09:00:00 17,0 6,0 2 1 - - 10 -
24.03.2019 08:00:00 13,0 4,0 4 2 - - 10 -
24.03.2019 07:00:00 7,0 2,6 5 3 N 1022,4 10 -
24.03.2019 06:00:00 9,0 3,0 5 3 NNE - 10 -
24.03.2019 05:00:00 6,0 3,0 8 4 N - 10 -
24.03.2019 04:00:00 7,2 3,1 11 6 N 1022,5 8 0,0
24.03.2019 03:00:00 5,0 4,0 4 2 N - 5 -
24.03.2019 02:00:00 6,0 4,0 5 3 N - 2,1 -
24.03.2019 01:00:00 5,9 3,8 4 2 N 1023,8 10 -
24.03.2019 00:00:00 9,0 4,0 4 2 NNE - 10 -
23.03.2019 23:00:00 8,0 4,0 4 2 - - 10 -
23.03.2019 22:00:00 10,6 3,9 9 5 ESE 1024,3 10 0,0
23.03.2019 21:00:00 11,0 5,0 9 5 SE - 10 -
23.03.2019 20:00:00 12,0 6,0 8 4 SE - 10 -
23.03.2019 19:00:00 12,8 6,7 11 6 SE 1023,2 10 -
23.03.2019 18:00:00 17,0 9,0 13 7 SE - 10 -
23.03.2019 17:00:00 23,0 3,0 8 4 SSW - 10 -
23.03.2019 16:00:00 23,9 0,2 22 12 ESE 1022,2 10 0,0
23.03.2019 15:00:00 24,0 1,0 18 10 SSE - 10 -
23.03.2019 14:00:00 24,0 2,0 18 10 SE - 10 -
23.03.2019 13:00:00 23,0 5,8 21 11 E 1024,1 10 -
23.03.2019 12:00:00 22,0 3,0 9 5 N - 10 -
23.03.2019 11:00:00 21,0 2,0 5 3 NNW - 10 -
23.03.2019 10:00:00 19,4 3,0 8 4 NNW 1025,5 10 0,0
23.03.2019 09:00:00 16,0 3,0 9 5 N - 10 -
23.03.2019 08:00:00 12,0 3,0 9 5 NNW - 10 -
23.03.2019 07:00:00 9,0 0,3 11 6 N 1025,5 10 -
23.03.2019 06:00:00 7,0 0,0 8 4 N - 10 -
23.03.2019 05:00:00 6,0 0,0 11 6 N - 10 -
23.03.2019 04:00:00 6,5 0,3 11 6 N 1025,5 10 0,0
23.03.2019 03:00:00 7,0 0,0 9 5 N - 10 -
23.03.2019 02:00:00 6,0 1,0 9 5 N - 10 -
23.03.2019 01:00:00 7,7 0,7 5 3 NNW 1026,8 10 -
23.03.2019 00:00:00 8,0 2,0 11 6 N - 10 -
22.03.2019 23:00:00 8,0 4,0 11 6 N - 10 -
22.03.2019 22:00:00 8,4 5,3 4 2 - 1027,3 10 0,0
22.03.2019 21:00:00 9,0 6,0 2 1 - - 10 -
22.03.2019 20:00:00 10,0 6,0 4 2 - - 10 -
22.03.2019 19:00:00 12,4 7,3 5 3 E 1027,3 10 -
22.03.2019 18:00:00 16,0 5,0 11 6 SSE - 10 -
22.03.2019 17:00:00 21,0 -2,0 5 3 WSW - 10 -
22.03.2019 16:00:00 21,0 -1,4 9 5 WSW 1026,8 10 0,0
22.03.2019 15:00:00 21,0 -2,0 9 5 W - 10 -
22.03.2019 14:00:00 21,0 -6,0 5 3 WSW - 10 -
22.03.2019 13:00:00 20,3 -3,6 8 4 NNW 1028,9 10 -
22.03.2019 12:00:00 19,0 -2,0 11 6 NNW - 10 -
22.03.2019 11:00:00 18,0 -1,0 15 8 N - 10 -
22.03.2019 10:00:00 16,8 -1,1 15 8 NNE 1030,5 10 0,0
22.03.2019 09:00:00 12,0 1,0 9 5 NNW - 10 -
22.03.2019 08:00:00 6,0 1,0 8 4 NNW - 10 -
22.03.2019 07:00:00 2,4 -0,8 8 4 N 1030,6 10 -
22.03.2019 06:00:00 2,0 -2,0 5 3 N - 10 -
22.03.2019 05:00:00 2,0 -1,0 5 3 NNW - 10 -
22.03.2019 04:00:00 3,2 -1,1 5 3 WNW 1029,8 10 0,0
22.03.2019 03:00:00 4,0 0,0 5 3 NW - 10 -
22.03.2019 02:00:00 4,0 0,0 9 5 NNW - 10 -
22.03.2019 01:00:00 5,1 -0,2 8 4 W 1031,2 10 -
22.03.2019 00:00:00 5,0 0,0 8 4 N - 10 -
21.03.2019 23:00:00 5,0 0,0 5 3 NNW - 10 -
21.03.2019 22:00:00 7,3 -0,4 5 3 ENE 1031,2 10 0,0
21.03.2019 21:00:00 9,0 -1,0 4 2 - - 10 -
21.03.2019 20:00:00 12,0 -1,0 5 3 ENE - 10 -
21.03.2019 19:00:00 13,6 -1,4 15 8 E 1030,0 10 -
21.03.2019 18:00:00 15,0 0,0 21 11 ESE - 10 -
21.03.2019 17:00:00 16,0 -1,0 28 15 ESE - 10 -
21.03.2019 16:00:00 17,4 0,2 21 11 E 1029,6 10 0,0
21.03.2019 15:00:00 17,0 0,0 18 10 E - 10 -
21.03.2019 14:00:00 17,0 -2,0 24 13 ESE - 10 -
21.03.2019 13:00:00 16,1 -1,7 24 13 E 1031,6 10 -
21.03.2019 12:00:00 15,0 -2,0 15 8 ENE - 10 -
21.03.2019 11:00:00 14,0 -3,0 18 10 ENE - 10 -
21.03.2019 10:00:00 12,8 -3,1 26 14 E 1033,3 10 0,0
21.03.2019 09:00:00 11,0 -4,0 22 12 ENE - 10 -
21.03.2019 08:00:00 10,0 -4,0 9 5 ENE - 10 -
21.03.2019 07:00:00 7,1 -3,8 11 6 NE 1032,9 10 -
21.03.2019 06:00:00 7,0 -4,0 13 7 NE - 10 -
21.03.2019 05:00:00 7,0 -4,0 13 7 ENE - 10 -
21.03.2019 04:00:00 7,7 -4,5 13 7 NE 1032,3 10 0,0
21.03.2019 03:00:00 8,0 -4,0 13 7 NE - 10 -
21.03.2019 02:00:00 8,0 -4,0 16 9 ENE - 10 -
21.03.2019 01:00:00 7,8 -4,3 11 6 NE 1033,1 10 -
21.03.2019 00:00:00 8,0 -4,0 16 9 NE - 10 -
20.03.2019 23:00:00 9,0 -4,0 15 8 ENE - 10 -
20.03.2019 22:00:00 9,6 -4,5 21 11 ENE 1032,7 10 0,0
20.03.2019 21:00:00 10,0 -4,0 16 9 E - 10 -
20.03.2019 20:00:00 10,0 -4,0 21 11 E - 10 -
20.03.2019 19:00:00 10,5 -4,0 24 13 E 1031,3 10 -
20.03.2019 18:00:00 12,0 -4,0 22 12 E - 10 -
20.03.2019 17:00:00 13,0 -3,0 22 12 ENE - 10 -
20.03.2019 16:00:00 13,3 -3,8 22 12 ENE 1029,9 10 0,0
20.03.2019 15:00:00 13,0 -4,0 21 11 ENE - 10 -
20.03.2019 14:00:00 13,0 -4,0 21 11 ENE - 10 -
20.03.2019 13:00:00 12,6 -3,0 16 9 NE 1030,9 10 -
20.03.2019 12:00:00 11,0 -3,0 16 9 ENE - 10 -
20.03.2019 11:00:00 11,0 -4,0 26 14 E - 10 -
20.03.2019 10:00:00 10,8 -2,3 28 15 E 1031,6 10 0,0
20.03.2019 09:00:00 10,0 -2,0 22 12 E - 10 -
20.03.2019 08:00:00 9,0 -1,0 13 7 E - 10 -
20.03.2019 07:00:00 6,9 -1,1 11 6 E 1030,3 10 -
20.03.2019 06:00:00 7,0 -1,0 15 8 ENE - 10 -
20.03.2019 05:00:00 6,0 -2,0 8 4 NE - 10 -
20.03.2019 04:00:00 5,8 -1,4 5 3 NE 1029,0 10 0,0
20.03.2019 03:00:00 3,0 0,0 5 3 NNW - 10 -
20.03.2019 02:00:00 7,0 -1,0 8 4 E - 10 -
20.03.2019 01:00:00 4,6 -0,1 5 3 NE 1028,6 10 -
20.03.2019 00:00:00 7,0 0,0 5 3 ENE - 10 -
19.03.2019 23:00:00 8,0 -1,0 8 4 E - 10 -
19.03.2019 22:00:00 8,2 -0,4 9 5 E 1027,4 10 0,0
19.03.2019 21:00:00 9,0 0,0 11 6 E - 10 -
19.03.2019 20:00:00 9,0 0,0 21 11 E - 10 -
19.03.2019 19:00:00 9,1 -0,4 24 13 E 1025,2 10 -
19.03.2019 18:00:00 10,0 0,0 24 13 E - 10 -
19.03.2019 17:00:00 12,0 -1,0 28 15 E - 10 -
19.03.2019 16:00:00 11,9 -0,3 28 15 E 1023,4 10 0,0
19.03.2019 15:00:00 12,0 1,0 15 8 E - 10 -
19.03.2019 14:00:00 11,0 0,0 15 8 E - 10 -
19.03.2019 13:00:00 10,9 -0,8 15 8 ENE 1023,5 10 -
19.03.2019 12:00:00 11,0 0,0 15 8 ENE - 10 -
19.03.2019 11:00:00 10,0 1,0 11 6 ENE - 10 -
19.03.2019 10:00:00 9,0 0,4 16 9 E 1023,5 10 0,0
19.03.2019 09:00:00 9,0 0,0 15 8 ENE - 10 -
19.03.2019 08:00:00 8,0 0,0 11 6 ENE - 10 -
19.03.2019 07:00:00 7,7 -0,4 9 5 ENE 1021,9 10 -

tt = temperature
td = dewpoint
ff = wind speed
dd = wind direction
ppp = reduced air pressure
vv = visibility
rr = precipitation

Next stations